This is the latest recevied weather packets stored in our database for station/object KA1JKB. If no packets are shown the sender has not sent any weather packets the latest 10 day(s).
| Time | Temp. | Humidity | Pressure | Rain* | Wind** | Luminosity | Snow |
|---|---|---|---|---|---|---|---|
| 1788052458 | 19.44° C | 92% | 1017 hPa | 0 mm | - | 0 W/m² | - |
| 1788052158 | 19.44° C | 92% | 1016.7 hPa | 0 mm | - | 0 W/m² | - |
| 1788051852 | 19.44° C | 92% | 1017 hPa | 0 mm | - | 0 W/m² | - |
| 1788051547 | 19.44° C | 92% | 1016.7 hPa | 0 mm | - | 0 W/m² | - |
| 1788051246 | 20° C | 92% | 1016.7 hPa | 0 mm | - | 0 W/m² | - |
| 1788050944 | 20° C | 92% | 1016.7 hPa | 0 mm | - | 0 W/m² | - |
| 1788050640 | 20° C | 91% | 1016.8 hPa | 0 mm | - | 0 W/m² | - |
| 1788050340 | 20° C | 91% | 1016.9 hPa | 0 mm | - | 0 W/m² | - |
| 1788050040 | 20° C | 90% | 1017 hPa | 0 mm | - | 0 W/m² | - |
| 1788049737 | 20.56° C | 90% | 1016.8 hPa | 0 mm | - | 0 W/m² | - |
| 1788049433 | 20.56° C | 90% | 1016.9 hPa | 0 mm | - | 0 W/m² | - |
| 1788049128 | 20.56° C | 90% | 1016.8 hPa | 0 mm | - | 0 W/m² | - |
| 1788048823 | 21.11° C | 89% | 1016.8 hPa | 0 mm | - | 0 W/m² | - |
| 1788048523 | 21.11° C | 88% | 1017 hPa | 0 mm | - | 0 W/m² | - |
| 1788048222 | 21.11° C | 86% | 1016.9 hPa | 0 mm | - | 2 W/m² | - |
| 1788047919 | 21.11° C | 85% | 1017 hPa | 0 mm | - | 3 W/m² | - |
| 1788047619 | 21.11° C | 86% | 1016.8 hPa | 0 mm | - | 3 W/m² | - |
| 1788047318 | 21.67° C | 86% | 1017 hPa | 0 mm | - | 3 W/m² | - |
| 1788047013 | 21.67° C | 86% | 1016.9 hPa | 0 mm | - | 7 W/m² | - |
| 1788046708 | 21.67° C | 86% | 1016.9 hPa | 0 mm | - | 14 W/m² | - |
| 1788046408 | 22.22° C | 84% | 1017 hPa | 0 mm | - | 21 W/m² | - |
| 1788046106 | 22.22° C | 84% | 1017.3 hPa | 0 mm | - | 22 W/m² | - |
| 1788045801 | 22.22° C | 83% | 1017.4 hPa | 0 mm | - | 25 W/m² | - |
| 1788045497 | 22.78° C | 83% | 1017.3 hPa | 0 mm | - | 16 W/m² | - |
| 1788045192 | 23.33° C | 80% | 1017.6 hPa | 0 mm | - | 19 W/m² | - |
* Rain latest hour (hover to see other rain measurements)
** Current wind speed in m/s (hover to see current wind gust speed)